Temp
54 54 54 55 55 55 55 55 54 54 55 55 56 56 57 57 56 59 64 63 57 58 65 63 63 62 66 67 64 66 69 70 75 69 73 75 72 76 73 75 73 72 71 72 73 68 64 84 82 76 78 86 86 88
54 54 54 54 54 54 55 54 54 54 54 55 55 56 56 56 56 56 62 66 64 57 61 63 65 65 63 64 63 67 62 62 67 67 73 73 72 76 72 68 75 70 75 73 75 74 77 83 80 84 84 80 82 83
53 54 54 54 54 54 54 54 54 54 54 55 55 55 56 56 56 55 61 61 62 60 64 64 63 66 69 67 71 61 68 65 65 67 67 71 63 72 69 72 71 73 75 75 72 76 77 80 84 84 84 82 83 85
53 53 53 54 54 54 54 54 54 54 54 54 55 55 56 56 55 54 60 62 60 59 57 62 68 64 68 69 67 68 66 68 67 70 69 69 68 71 74 70 71 77 74 73 74 75 77 81 79 79 81 83 82 84
53 53 53 53 53 54 54 54 54 54 54 54 54 55 55 55 54 58 62 65 63 56 55 63 67 68 68 65 65 66 65 64 67 66 67 68 73 70 75 72 72 80 74 72 71 71 72 74 77 80 79 81 83 82
52 52 52 53 53 53 54 54 54 54 54 54 54 54 55 55 53 61 54 62 66 61 55 58 66 63 67 67 64 63 66 66 67 67 69 71 69 68 67 66 75 76 75 77 72 75 76 76 79 81 80 81 84 84
52 52 52 53 53 53 53 53 54 54 53 54 54 54 54 54 59 57 55 58 56 62 55 57 61 65 65 66 69 67 65 67 67 69 66 68 70 67 67 63 73 74 75 75 78 77 73 77 76 79 80 82 80 83
52 52 52 52 53 53 53 53 53 54 54 54 54 54 53 54 54 57 63 56 59 59 58 53 59 60 65 66 63 70 66 66 65 67 68 64 71 67 61 69 72 74 75 75 76 78 77 77 78 79 81 81 79 80
52 51 52 53 52 53 53 53 53 53 54 54 54 53 56 57 58 61 55 54 64 59 54 57 56 55 68 67 66 65 67 60 68 62 65 68 65 59 66 68 69 72 71 72 75 75 75 74 75 76 78 79 78 80
52 52 52 52 52 52 52 53 53 53 53 53 52 50 50 60 54 56 57 56 57 58 58 54 61 57 62 65 62 63 65 64 59 65 71 61 63 71 74 74 74 73 72 72 68 68 71 72 74 75 76 78 79 80
51 52 52 52 52 52 53 53 53 53 52 52 45 48 59 54 60 57 47 49 53 49 57 60 58 58 64 58 60 63 60 64 55 61 60 62 63 69 68 68 71 69 71 72 73 74 74 74 74 75 76 78 79 79
52 51 52 52 52 53 53 52 53 56 56 54 54 57 56 52 50 43 47 50 49 50 56 56 57 62 61 63 59 60 56 59 50 64 58 56 65 65 66 66 68 70 71 71 73 73 74 74 74 75 77 77 77 78
52 52 52 52 53 53 53 52 53 54 53 52 49 48 50 40 34 36 36 43 49 54 57 56 53 61 59 60 59 57 49 52 62 54 54 63 61 65 64 66 67 70 70 70 70 73 74 75 75 75 75 75 73 72
51 51 51 52 52 53 52 52 53 53 53 45 41 33 39 35 41 49 52 56 55 58 56 57 57 56 61 54 58 47 58 56 48 48 51 64 61 61 63 65 65 64 66 67 68 71 72 73 73 74 73 73 71 70
51 51 51 51 52 52 52 52 53 54 44 40 43 36 43 56 59 59 59 56 57 59 58 57 59 58 57 52 56 52 47 43 50 53 58 61 58 58 59 60 63 63 63 65 68 70 70 70 70 70 72 72 71 67
52 51 50 51 52 52 52 53 52 53 46 42 43 44 54 52 53 54 54 53 60 59 60 60 52 48 48 52 46 45 46 46 54 49 49 50 50 53 50 53 59 59 58 57 63 68 70 70 69 67 66 69 68 66
53 50 50 50 52 52 52 52 52 46 42 41 47 54 54 54 56 56 57 57 61 54 49 52 44 44 53 47 45 52 47 45 45 46 47 48 48 51 54 53 54 56 61 64 66 67 67 69 69 67 65 68 69 68
54 55 52 52 53 52 54 55 49 44 38 48 49 55 54 57 57 57 59 61 57 53 53 45 46 43 46 44 49 47 46 47 47 49 50 51 49 52 52 53 54 54 58 62 64 67 68 67 67 67 67 68 68 67
55 56 52 52 55 54 47 50 50 44 48 56 55 58 56 57 58 61 61 59 60 57 58 44 42 41 48 50 46 46 47 48 48 51 53 54 54 56 53 53 54 53 61 62 64 67 67 67 70 71 71 71 69 70
52 52 52 52 52 51 47 48 57 50 49 51 56 55 56 57 60 59 59 59 58 53 49 46 47 52 51 50 52 49 50 53 53 53 54 58 61 66 64 66 67 68 69 68 69 58 71 72 74 74 73 70 72 70
52 51 52 53 55 54 51 50 50 54 52 48 49 50 49 54 53 54 55 56 48 49 49 54 56 59 58 56 55 59 59 58 55 58 60 65 65 66 69 70 70 70 69 69 68 68 63 69 70 71 70 70 72 72
53 53 50 51 46 45 44 49 47 44 42 42 41 45 44 44 46 47 49 46 46 49 49 49 51 54 57 58 60 63 63 63 63 65 54 59 66 66 64 68 68 67 65 69 69 69 68 72 72 74 72 68 63 72
50 49 46 46 39 37 37 45 39 41 37 40 43 41 42 43 45 48 41 44 45 50 50 50 54 57 57 61 63 62 63 63 68 67 69 66 67 70 70 70 70 68 67 67 71 70 70 52 63 67 71 70 69 69
50 45 40 38 38 35 41 38 40 41 40 41 41 38 42 44 45 43 43 48 52 54 55 57 59 58 59 61 61 61 65 71 70 67 71 69 69 66 70 70 71 71 70 70 70 70 70 69 57 69 69 68 68 67
39 40 41 37 44 44 46 48 49 49 45 49 45 44 46 50 45 46 48 51 56 58 59 63 68 67 65 67 69 69 68 70 68 67 70 71 70 71 71 72 72 72 72 69 68 68 68 69 68 68 68 68 66 66
37 46 43 48 50 49 51 50 51 53 55 52 52 56 58 56 47 43 52 56 59 64 65 65 64 64 64 68 67 68 69 71 70 69 70 71 70 69 67 67 68 70 73 71 68 67 67 67 67 66 66 65 52 62
44 49 53 57 52 54 56 57 59 57 53 52 56 57 58 49 47 53 62 64 63 66 67 68 68 68 68 68 70 71 72 72 69 69 71 72 72 72 70 67 66 70 72 71 70 68 67 66 66 66 66 67 67 67
51 54 50 58 59 63 57 57 55 54 56 64 62 53 50 51 51 61 64 67 70 71 71 71 71 72 70 70 72 72 72 74 73 73 74 75 76 76 72 73 72 49 67 70 70 70 69 68 67 66 65 65 65 67
57 59 64 58 60 60 59 58 58 62 67 64 58 56 57 62 66 67 68 70 73 72 70 70 70 74 74 75 75 75 74 72 67 63 62 64 67 70 73 73 73 73 72 72 53 56 66 66 67 67 66 66 66 66
61 68 61 60 57 56 60 66 64 67 69 68 67 65 65 67 69 73 73 72 70 70 71 72 73 71 70 70 69 70 73 72 69 65 61 61 63 69 70 69 69 70 70 68 68 69 52 54 60 62 59 59 58 59
68 66 62 62 59 63 67 71 71 70 70 68 70 66 65 68 70 72 71 72 74 73 71 70 70 70 68 67 66 65 64 69 68 67 65 65 66 65 65 65 66 67 67 67 67 65 64 61 59 58 57 55 55 50
66 62 62 58 61 68 71 68 67 66 68 66 66 70 69 67 63 68 70 72 71 69 60 66 67 67 69 68 69 68 48 66 66 65 62 61 61 60 62 65 65 65 64 64 64 65 64 63 63 63 62 60 59 57
66 68 66 66 64 61 68 65 65 63 66 66 67 68 67 65 59 67 74 72 69 68 68 69 70 70 68 68 67 65 57 66 58 44 43 41 38 44 56 63 62 62 61 62 63 63 63 61 61 60 60 59 58 56
MSLP
1020.67 1020.69 1020.56 1020.52 1020.41 1020.34 1020.23 1020.26 1020.19 1020.05 1019.82 1019.50 1019.21 1018.82 1018.38 1018.00 1017.72 1017.00 1015.92 1016.11 1015.39 1013.36 1011.82 1011.90 1011.54 1010.85 1010.00 1009.46 1008.22 1007.98 1006.92 1005.99 1004.46 1003.24 1001.51 1000.27 999.93 999.46 999.70 999.57 999.58 999.60 999.50 998.98 999.40 999.20 999.68 1000.17 1000.61 1000.72 1001.29 1000.71 1000.88 1000.97
1019.95 1020.01 1019.93 1019.92 1019.82 1019.87 1019.85 1019.80 1019.79 1019.74 1019.56 1019.30 1019.06 1018.79 1018.48 1018.19 1017.88 1017.44 1015.83 1015.81 1015.88 1014.82 1012.89 1013.16 1012.64 1012.52 1012.30 1011.70 1010.97 1009.32 1008.84 1008.11 1007.52 1005.72 1004.28 1002.84 1001.64 1001.03 1000.42 999.84 1000.84 1000.60 1000.29 999.98 1000.00 1000.12 1001.24 1001.21 1001.53 1001.79 1002.00 1002.05 1001.77 1001.72
1019.26 1019.30 1019.33 1019.35 1019.32 1019.33 1019.34 1019.31 1019.33 1019.36 1019.28 1019.09 1018.91 1018.71 1018.37 1018.18 1017.97 1017.74 1016.56 1016.27 1015.44 1014.09 1012.57 1012.39 1011.85 1012.26 1012.42 1012.27 1012.08 1010.81 1009.68 1009.92 1009.08 1009.11 1006.98 1005.06 1003.85 1003.17 1001.37 1001.07 1001.24 1001.48 1001.77 1001.15 1001.38 1001.42 1001.73 1001.93 1002.00 1002.14 1002.19 1002.21 1002.06 1001.86
1018.49 1018.57 1018.68 1018.72 1018.80 1018.84 1018.86 1018.85 1018.93 1018.92 1018.95 1018.87 1018.71 1018.55 1018.29 1018.09 1017.93 1017.76 1016.62 1016.41 1015.93 1014.77 1012.74 1011.75 1012.42 1012.06 1012.34 1012.19 1012.04 1011.75 1011.29 1010.99 1010.39 1009.15 1007.38 1005.93 1004.83 1004.72 1002.84 1002.73 1002.21 1002.04 1002.35 1001.78 1001.80 1002.20 1002.34 1002.31 1002.98 1003.11 1002.84 1002.54 1002.19 1001.85
1017.78 1017.86 1017.95 1018.06 1018.18 1018.24 1018.35 1018.47 1018.56 1018.57 1018.57 1018.59 1018.50 1018.38 1018.16 1017.99 1017.87 1017.45 1016.84 1016.60 1016.47 1015.79 1013.46 1011.59 1011.70 1011.96 1012.04 1012.13 1011.95 1011.85 1011.57 1011.05 1009.86 1008.72 1007.54 1006.30 1006.09 1005.61 1004.40 1004.09 1002.58 1002.34 1002.19 1002.49 1002.31 1003.69 1003.58 1003.45 1003.80 1003.58 1003.19 1002.69 1002.37 1002.08
1016.99 1017.13 1017.26 1017.44 1017.65 1017.74 1017.77 1017.95 1018.11 1018.24 1018.24 1018.33 1018.33 1018.24 1018.06 1017.84 1017.82 1016.83 1016.23 1016.34 1016.34 1016.13 1014.39 1011.69 1011.65 1011.66 1011.64 1011.71 1011.71 1011.60 1011.33 1011.00 1010.23 1009.00 1007.88 1007.35 1007.43 1007.01 1004.84 1003.53 1003.06 1003.50 1003.98 1003.91 1004.00 1004.52 1004.51 1004.46 1004.08 1003.74 1003.47 1003.17 1002.74 1002.45
1016.16 1016.36 1016.59 1016.82 1016.99 1017.10 1017.27 1017.35 1017.56 1017.83 1017.99 1018.18 1018.26 1018.17 1018.07 1017.88 1017.34 1016.69 1016.34 1016.60 1016.96 1016.31 1014.61 1012.03 1010.73 1011.35 1011.59 1011.31 1010.99 1011.00 1011.30 1010.68 1010.14 1009.03 1008.41 1007.62 1007.20 1007.41 1005.42 1004.10 1003.78 1004.30 1004.64 1004.60 1004.62 1004.67 1004.49 1004.26 1004.12 1004.23 1003.93 1003.49 1003.43 1003.05
1015.33 1015.50 1015.73 1016.00 1016.23 1016.45 1016.68 1016.91 1017.19 1017.46 1017.66 1018.04 1018.15 1018.15 1018.03 1017.89 1017.69 1016.72 1016.23 1016.81 1016.68 1015.66 1014.75 1012.62 1010.83 1010.88 1011.28 1010.17 1009.97 1010.67 1010.15 1010.32 1010.01 1008.95 1008.57 1007.82 1006.90 1006.98 1005.33 1004.61 1004.72 1004.90 1004.89 1004.80 1004.71 1004.66 1004.68 1004.74 1004.62 1004.24 1003.88 1003.72 1003.44 1003.20
1014.36 1014.71 1014.99 1015.36 1015.78 1015.94 1016.21 1016.45 1016.75 1017.13 1017.51 1017.86 1018.02 1018.00 1017.64 1017.42 1016.32 1015.88 1016.83 1016.80 1016.08 1015.62 1013.84 1012.65 1010.85 1009.96 1011.03 1010.40 1010.41 1010.34 1010.03 1009.14 1009.33 1008.60 1007.76 1007.35 1006.24 1005.45 1004.92 1005.06 1005.22 1005.13 1005.08 1005.05 1005.01 1004.96 1004.84 1004.68 1004.42 1004.21 1003.93 1003.60 1003.26 1002.99
1013.58 1013.99 1014.38 1014.80 1015.19 1015.55 1015.86 1016.11 1016.45 1016.93 1017.40 1017.74 1017.89 1017.58 1016.34 1016.07 1016.80 1016.83 1016.54 1015.50 1015.16 1014.57 1014.15 1012.57 1012.12 1010.84 1011.14 1010.35 1010.06 1010.07 1009.63 1008.47 1007.85 1007.24 1007.56 1006.81 1005.08 1004.72 1004.69 1005.04 1005.26 1005.45 1005.77 1005.86 1005.39 1004.94 1004.65 1004.28 1004.02 1003.81 1003.62 1003.38 1003.14 1003.02
1013.09 1013.43 1013.90 1014.40 1014.88 1015.24 1015.42 1015.83 1016.29 1017.00 1017.39 1017.39 1017.27 1016.67 1016.28 1016.87 1016.22 1015.74 1015.40 1014.83 1014.32 1013.73 1013.01 1012.40 1012.13 1011.16 1011.82 1010.82 1010.19 1010.60 1009.66 1009.02 1007.81 1006.94 1007.10 1005.03 1004.05 1004.10 1005.55 1005.87 1006.13 1006.24 1006.16 1005.91 1005.58 1005.18 1004.82 1004.46 1003.99 1003.69 1003.37 1003.12 1002.87 1002.91
1012.63 1013.07 1013.55 1013.99 1014.40 1014.84 1015.21 1015.73 1016.21 1016.41 1016.29 1016.54 1016.61 1016.62 1016.68 1016.47 1016.06 1015.59 1014.67 1014.35 1013.70 1012.49 1012.44 1011.99 1011.92 1012.01 1011.99 1012.24 1011.18 1010.98 1010.06 1009.65 1008.13 1008.12 1007.23 1005.12 1004.73 1005.98 1006.35 1006.65 1006.73 1006.54 1006.35 1005.95 1005.58 1005.02 1004.43 1003.89 1003.70 1003.25 1002.96 1002.92 1003.02 1002.95
1012.45 1012.79 1013.16 1013.57 1014.13 1014.66 1015.16 1015.77 1016.27 1016.34 1016.74 1017.11 1017.02 1016.23 1015.81 1016.95 1016.01 1014.94 1013.93 1013.44 1012.47 1012.39 1012.22 1012.23 1012.08 1011.83 1012.52 1012.38 1011.60 1011.21 1010.49 1009.47 1009.28 1008.31 1006.72 1005.63 1006.55 1006.93 1007.29 1007.28 1006.96 1006.57 1006.15 1005.78 1005.29 1004.70 1003.99 1003.34 1003.29 1003.10 1002.93 1003.24 1003.94 1004.24
1012.41 1012.70 1013.12 1013.48 1013.99 1014.64 1015.25 1015.93 1016.51 1016.81 1016.93 1016.95 1016.64 1016.33 1015.71 1015.44 1014.63 1013.19 1012.48 1012.09 1012.53 1012.44 1012.25 1012.04 1011.93 1011.85 1012.16 1011.89 1011.60 1011.22 1010.55 1010.67 1009.43 1008.03 1006.82 1006.29 1007.38 1008.03 1008.32 1008.06 1007.66 1007.10 1006.48 1005.86 1005.01 1004.17 1003.41 1003.02 1003.00 1003.08 1003.53 1004.00 1004.48 1004.95
1012.31 1012.82 1013.31 1013.66 1014.00 1014.72 1015.48 1016.21 1016.72 1016.94 1017.65 1017.23 1016.49 1015.35 1014.43 1013.38 1013.19 1013.05 1012.81 1012.98 1013.10 1012.92 1012.63 1012.32 1012.35 1012.29 1011.85 1011.96 1011.78 1011.59 1011.12 1010.59 1009.37 1008.22 1008.23 1008.39 1009.02 1009.03 1008.78 1008.50 1007.70 1007.13 1006.58 1005.89 1004.71 1003.88 1003.61 1003.66 1003.89 1004.00 1004.28 1004.57 1004.90 1005.49
1013.21 1013.38 1013.73 1013.94 1014.58 1015.28 1015.99 1016.66 1017.07 1017.24 1017.60 1017.17 1016.29 1014.81 1013.67 1013.12 1012.55 1012.86 1012.80 1012.75 1012.93 1012.83 1013.00 1012.85 1012.66 1012.48 1012.04 1011.88 1011.78 1011.45 1011.00 1010.38 1009.93 1010.87 1011.13 1010.85 1010.21 1009.45 1009.19 1008.75 1007.85 1007.49 1006.76 1006.23 1005.06 1004.08 1003.92 1004.17 1004.41 1004.85 1005.31 1005.26 1005.63 1005.96
1013.35 1013.93 1014.82 1014.93 1015.40 1016.00 1016.51 1016.71 1016.87 1017.09 1017.09 1016.27 1014.76 1013.94 1013.34 1012.91 1012.00 1012.20 1012.49 1012.48 1012.98 1013.26 1013.03 1013.31 1012.96 1012.57 1012.36 1011.90 1011.66 1011.52 1011.55 1012.25 1012.36 1011.98 1011.57 1010.74 1009.76 1009.37 1008.85 1008.58 1008.14 1007.48 1006.35 1005.58 1005.11 1004.69 1004.81 1004.93 1005.07 1005.25 1005.36 1005.53 1005.81 1005.99
1013.99 1014.74 1015.23 1015.61 1015.90 1016.29 1016.42 1016.27 1016.36 1016.42 1016.02 1014.99 1013.85 1013.07 1013.42 1013.10 1012.51 1012.42 1012.58 1012.76 1013.10 1013.25 1013.42 1013.96 1014.02 1012.97 1011.90 1011.56 1011.40 1012.35 1012.79 1012.68 1012.53 1011.96 1011.38 1010.22 1010.01 1009.24 1008.89 1008.45 1008.12 1007.75 1006.98 1006.03 1005.63 1005.42 1005.35 1005.31 1005.33 1005.44 1005.76 1005.87 1005.95 1006.25
1014.67 1015.17 1015.76 1015.99 1015.88 1015.82 1015.96 1015.99 1016.06 1015.19 1014.49 1013.88 1013.66 1013.49 1013.44 1013.14 1013.10 1012.75 1012.75 1013.18 1013.38 1013.82 1013.70 1014.41 1013.84 1012.89 1012.10 1012.19 1012.66 1012.80 1012.61 1012.34 1012.02 1011.52 1010.73 1010.15 1009.96 1009.63 1009.23 1009.00 1008.37 1007.69 1006.99 1006.53 1006.16 1005.79 1005.85 1005.70 1005.46 1005.46 1005.60 1005.76 1005.74 1005.97
1015.68 1016.04 1016.32 1016.35 1016.36 1015.71 1015.34 1015.28 1015.43 1014.58 1013.70 1013.69 1013.52 1013.14 1013.19 1012.83 1012.76 1013.04 1013.09 1013.21 1013.49 1013.83 1013.62 1013.40 1012.70 1012.10 1012.25 1012.19 1012.39 1012.54 1012.15 1011.76 1011.34 1010.65 1010.22 1009.32 1009.01 1008.29 1008.32 1007.73 1007.43 1006.91 1006.46 1006.36 1006.27 1006.19 1005.84 1005.74 1005.73 1005.76 1005.69 1006.11 1005.88 1005.84
1016.09 1016.45 1016.63 1016.59 1015.98 1015.46 1015.21 1014.76 1014.52 1014.15 1014.03 1014.00 1013.84 1013.62 1013.37 1013.15 1012.93 1012.86 1012.91 1013.42 1013.98 1013.51 1012.86 1012.38 1012.07 1011.74 1011.68 1011.78 1011.73 1011.42 1010.88 1010.64 1010.40 1009.79 1009.25 1008.47 1008.47 1008.23 1007.85 1007.62 1007.32 1007.05 1006.61 1006.30 1006.04 1006.15 1006.23 1005.90 1005.97 1006.18 1006.22 1006.12 1006.21 1006.28
1016.02 1016.28 1016.40 1016.46 1016.31 1015.89 1015.57 1015.15 1014.92 1015.33 1015.06 1014.82 1014.57 1013.94 1013.29 1012.92 1012.79 1013.03 1013.32 1013.56 1013.41 1012.86 1012.74 1012.39 1012.05 1011.81 1011.31 1010.95 1010.42 1010.11 1009.92 1009.79 1009.51 1009.00 1008.88 1008.54 1007.85 1007.72 1007.88 1007.72 1007.34 1007.13 1007.18 1006.63 1006.51 1006.30 1006.27 1006.28 1006.35 1006.25 1006.18 1006.27 1006.72 1006.31
1016.19 1016.46 1016.36 1016.19 1016.15 1015.93 1015.56 1015.32 1014.98 1014.75 1014.53 1013.90 1013.48 1013.21 1012.74 1012.65 1012.98 1013.30 1013.35 1013.26 1012.88 1012.17 1012.16 1011.97 1011.54 1011.26 1010.92 1010.29 1009.97 1009.70 1009.40 1009.17 1008.48 1008.42 1008.26 1008.33 1008.12 1007.83 1007.49 1007.21 1007.11 1006.96 1006.70 1006.50 1006.71 1006.50 1006.30 1007.08 1006.94 1007.00 1006.44 1006.62 1006.44 1006.27
1015.89 1015.76 1015.62 1015.30 1015.07 1014.34 1014.43 1014.12 1013.89 1013.12 1012.93 1012.22 1012.08 1012.20 1011.90 1011.88 1012.67 1012.51 1012.00 1011.76 1011.55 1011.44 1011.15 1010.77 1010.54 1010.18 1010.04 1009.64 1009.33 1009.16 1008.91 1008.47 1008.21 1008.11 1007.98 1007.66 1007.38 1007.46 1007.50 1007.25 1006.96 1006.92 1006.89 1006.92 1006.65 1006.42 1006.31 1006.31 1006.84 1006.36 1006.20 1006.23 1006.24 1006.23
1015.21 1014.86 1014.43 1013.61 1013.15 1012.46 1011.68 1011.35 1010.98 1010.75 1010.66 1010.66 1010.94 1011.19 1011.24 1011.22 1011.50 1011.49 1011.55 1011.40 1010.96 1010.69 1010.40 1009.91 1009.08 1009.03 1008.78 1008.56 1008.31 1008.42 1008.81 1008.18 1007.81 1007.66 1007.47 1007.64 1007.37 1006.94 1006.67 1006.60 1006.62 1006.80 1006.93 1006.69 1006.40 1006.36 1006.31 1006.25 1006.20 1006.09 1005.99 1006.03 1006.19 1006.21
1013.87 1013.21 1013.01 1012.20 1011.54 1010.95 1010.33 1009.77 1009.72 1009.43 1009.31 1009.39 1009.78 1010.04 1010.07 1010.05 1011.09 1011.63 1011.30 1010.98 1010.49 1009.98 1009.87 1009.68 1009.46 1008.83 1008.78 1008.66 1008.38 1008.33 1008.53 1008.50 1008.19 1007.56 1007.36 1007.53 1007.32 1007.06 1006.80 1006.57 1006.26 1006.17 1006.63 1006.85 1006.71 1006.54 1006.40 1006.23 1006.09 1006.06 1006.00 1006.00 1006.43 1006.47
1012.85 1012.13 1011.71 1011.73 1011.44 1010.53 1009.50 1009.26 1009.04 1008.83 1008.75 1008.93 1009.17 1009.02 1009.05 1009.70 1010.66 1011.22 1010.86 1010.80 1010.54 1010.40 1010.21 1009.88 1009.53 1009.15 1008.95 1008.88 1008.80 1008.89 1008.78 1008.71 1008.64 1008.49 1008.16 1007.79 1007.54 1007.39 1007.26 1006.91 1006.55 1006.47 1006.56 1006.64 1006.58 1006.47 1006.35 1006.20 1006.04 1005.87 1005.68 1005.50 1005.37 1005.32
1012.63 1012.02 1011.17 1010.48 1009.88 1009.36 1008.96 1008.69 1008.72 1008.83 1008.77 1008.76 1008.68 1008.96 1009.75 1010.20 1011.11 1011.11 1011.07 1011.07 1010.66 1010.31 1010.10 1010.00 1009.89 1009.61 1009.45 1009.36 1009.15 1008.87 1008.65 1008.42 1008.14 1007.92 1007.47 1006.91 1006.79 1006.83 1007.14 1006.92 1006.76 1006.97 1006.88 1006.65 1006.31 1006.16 1006.05 1005.95 1005.87 1005.75 1005.54 1005.30 1005.14 1005.05
1011.56 1011.18 1010.16 1009.77 1009.52 1009.49 1009.34 1009.12 1009.11 1009.31 1008.88 1009.07 1009.40 1009.90 1010.51 1010.97 1011.16 1010.93 1011.06 1010.92 1010.45 1010.02 1009.82 1009.66 1009.69 1009.31 1009.11 1009.00 1008.84 1008.65 1008.50 1008.39 1008.28 1008.11 1007.80 1007.30 1006.74 1006.50 1006.46 1006.32 1006.08 1005.92 1005.76 1005.58 1005.74 1005.95 1005.64 1005.74 1005.65 1005.52 1005.05 1004.78 1004.71 1004.68
1010.70 1010.42 1010.22 1010.16 1009.99 1010.03 1010.21 1009.88 1009.84 1010.02 1009.99 1010.04 1010.30 1010.52 1010.64 1010.82 1011.19 1011.33 1010.89 1010.60 1010.39 1010.15 1009.96 1009.75 1009.53 1009.48 1009.33 1009.09 1008.96 1008.95 1008.70 1008.70 1009.02 1009.17 1008.71 1008.44 1007.98 1007.61 1007.16 1006.78 1006.37 1005.97 1005.56 1005.23 1005.01 1004.78 1004.80 1005.40 1004.87 1005.13 1005.02 1004.64 1004.50 1004.27
1010.74 1010.60 1010.49 1010.42 1010.45 1010.55 1010.44 1010.20 1010.07 1010.14 1010.03 1010.10 1010.09 1010.13 1010.38 1010.51 1010.94 1011.15 1011.13 1010.97 1010.41 1010.24 1010.39 1010.17 1009.97 1010.21 1010.20 1009.98 1009.80 1009.66 1009.48 1009.56 1009.53 1009.63 1009.74 1009.49 1008.83 1008.40 1008.07 1007.66 1007.07 1006.43 1005.82 1005.31 1005.02 1004.72 1004.57 1004.49 1004.32 1004.13 1003.88 1003.83 1004.07 1004.37
1010.82 1010.69 1010.50 1010.45 1010.52 1010.65 1010.41 1010.23 1010.20 1010.11 1010.06 1010.13 1010.10 1010.04 1010.05 1010.07 1010.32 1010.95 1011.67 1011.28 1010.88 1010.86 1011.25 1010.90 1010.69 1010.64 1010.71 1010.81 1010.30 1010.22 1010.92 1010.20 1009.96 1010.07 1010.15 1010.17 1009.78 1009.55 1008.91 1007.89 1007.28 1006.81 1006.15 1005.58 1005.00 1004.48 1003.99 1003.68 1003.22 1002.86 1002.72 1002.81 1002.93 1002.99
1010.85 1010.68 1010.65 1010.50 1010.41 1010.32 1010.31 1010.30 1010.11 1010.12 1010.18 1010.12 1010.19 1010.35 1010.47 1010.54 1010.92 1011.40 1011.65 1011.94 1011.92 1011.65 1011.57 1011.43 1011.28 1011.12 1011.03 1010.88 1010.76 1010.72 1010.67 1010.45 1010.38 1010.44 1010.55 1010.58 1010.57 1010.20 1009.32 1008.36 1007.90 1007.21 1006.47 1005.64 1004.99 1004.42 1003.90 1003.59 1003.25 1002.95 1002.72 1002.45 1002.34 1002.51
Wind_Speed
16 16 15 14 13 13 12 9 9 10 10 11 12 13 13 11 11 9 3 5 5 5 3 3 4 5 3 2 5 8 6 3 5 7 6 5 9 5 6 3 4 11 10 10 11 11 13 9 8 10 6 6 5 9
16 16 16 15 14 11 10 10 9 10 10 10 11 12 12 9 9 9 4 4 5 5 6 5 9 9 7 5 6 5 4 3 5 6 0 4 6 2 6 8 5 7 4 6 4 4 6 4 3 6 7 9 12 10
17 16 15 15 14 12 11 12 10 10 9 9 10 11 10 8 5 6 5 5 5 4 5 5 2 3 2 6 9 5 4 5 4 4 4 3 6 4 7 8 2 4 1 5 3 7 2 4 5 7 8 10 13 14
17 17 14 14 13 12 11 9 11 10 9 8 9 10 10 9 3 6 5 5 4 4 6 7 3 2 6 3 6 7 6 4 6 5 3 3 4 2 2 6 6 6 2 4 6 2 5 4 8 11 11 10 10 10
16 16 16 14 14 13 13 12 11 11 9 7 8 8 9 9 2 6 3 1 3 6 5 3 1 4 4 3 4 5 6 6 4 4 4 3 2 4 3 3 7 5 4 6 5 6 5 6 12 13 10 10 6 4
17 15 14 14 14 13 12 14 11 10 9 7 6 7 8 6 4 5 4 4 2 5 5 2 3 2 1 1 5 6 5 5 5 4 3 3 1 5 5 7 5 4 2 6 3 7 8 12 11 8 9 11 6 6
16 16 16 15 14 14 13 14 12 10 9 6 5 6 7 4 6 4 6 5 4 6 4 4 3 4 2 2 4 4 5 3 4 3 4 5 3 5 7 11 5 3 5 6 9 10 12 10 11 12 11 9 8 11
17 17 17 17 16 15 14 13 13 11 8 6 5 5 8 5 8 6 2 4 4 5 4 4 1 5 2 2 4 1 4 5 6 4 2 6 3 5 5 6 6 8 10 11 10 8 9 11 12 14 11 10 10 9
16 16 16 13 14 14 14 12 12 11 9 6 5 7 5 5 4 3 3 4 3 4 4 3 4 4 1 2 0 4 3 5 3 5 5 4 7 8 6 8 7 7 7 10 12 14 14 14 14 13 13 13 13 12
14 14 12 11 9 8 10 11 13 13 10 6 4 4 5 3 5 5 6 4 4 4 4 4 1 2 5 0 3 3 2 3 4 5 1 6 9 13 9 8 8 8 8 12 13 13 13 13 13 13 14 13 11 13
11 12 12 10 10 10 12 12 14 12 8 4 3 3 5 2 4 2 2 4 3 3 4 1 3 2 2 4 2 2 2 2 4 5 5 4 5 6 6 2 3 5 7 10 12 14 15 18 18 15 14 14 12 12
9 11 13 14 12 12 11 14 17 9 4 3 2 0 3 3 2 3 3 2 4 2 4 4 4 2 4 2 3 2 3 2 5 3 5 5 6 8 4 3 5 8 11 14 15 18 19 18 16 15 12 10 10 2
7 10 10 11 13 14 14 15 14 8 9 3 3 4 3 1 3 4 7 4 4 5 5 6 6 1 4 3 2 3 4 4 3 4 5 3 7 4 6 9 11 14 16 16 17 18 19 15 12 10 7 4 9 10
5 8 9 10 15 15 17 17 12 7 3 1 3 3 4 4 6 5 3 2 5 2 5 4 4 1 2 4 1 3 1 3 5 5 5 3 7 9 13 13 14 17 19 17 17 15 14 9 6 6 9 11 9 8
12 11 11 8 14 19 18 18 11 3 2 1 2 4 6 2 0 0 2 4 4 3 4 3 3 3 2 3 2 2 4 5 5 4 8 11 16 18 19 19 18 15 14 14 14 7 3 6 9 11 11 9 9 8
11 13 7 18 19 20 20 15 4 2 2 3 3 5 3 5 5 5 6 5 4 3 1 2 2 3 3 2 3 4 4 4 5 7 10 14 19 20 15 15 13 13 10 10 4 5 7 7 7 8 7 9 8 9
6 5 11 15 19 20 14 3 2 4 2 3 5 5 5 4 1 6 5 5 4 4 3 2 4 4 2 4 3 3 3 5 8 11 11 15 15 12 9 10 9 8 8 4 2 5 6 7 9 9 8 7 8 8
11 11 17 19 16 7 4 2 2 4 4 6 4 3 4 3 2 5 4 3 4 2 1 2 4 3 4 3 1 4 4 7 8 8 9 12 11 8 8 7 5 6 8 5 6 7 6 6 6 5 6 6 7 8
9 11 16 14 3 2 3 6 4 4 6 3 5 3 3 3 4 2 4 4 3 2 1 0 4 3 4 4 4 5 7 6 3 7 7 6 4 7 8 5 3 6 1 4 5 5 5 6 5 4 4 4 3 4
12 11 10 8 2 3 4 3 2 4 4 2 4 4 4 3 4 6 6 5 4 3 4 4 4 3 3 4 1 3 6 6 6 4 3 5 3 5 7 7 6 2 4 5 5 3 4 2 2 2 4 4 2 4
4 3 4 5 2 3 3 1 4 2 3 2 2 4 3 4 5 6 6 4 5 4 4 5 6 6 6 7 5 7 7 5 5 4 3 3 3 4 4 4 4 4 5 6 5 3 4 5 3 2 2 2 1 1
1 3 1 2 2 2 3 2 2 3 1 1 2 3 4 4 4 3 3 4 3 3 2 2 4 7 9 10 7 6 7 6 5 4 6 4 5 3 3 3 5 5 5 5 4 5 4 3 4 3 4 2 4 3
5 2 2 3 3 3 4 2 2 3 3 3 5 4 2 1 1 4 2 2 4 4 6 8 12 13 10 9 8 7 3 4 1 3 2 2 4 3 5 4 4 6 6 4 4 6 5 3 4 6 4 4 5 5
6 5 5 4 5 3 5 5 3 2 2 3 4 5 4 3 6 4 2 2 2 2 3 5 5 3 3 2 1 3 3 2 3 1 2 5 4 2 4 5 6 6 6 6 6 5 5 5 2 6 6 6 6 6
1 2 4 3 5 4 1 4 6 5 3 9 5 4 2 1 3 4 7 3 5 5 4 1 4 4 5 5 4 5 1 5 6 7 4 3 5 5 5 4 4 4 5 6 6 7 6 6 6 7 7 7 7 9
3 2 4 7 4 4 5 5 6 9 9 6 5 3 1 4 5 4 5 7 5 8 7 6 5 5 5 4 6 6 6 6 6 7 6 7 7 7 8 7 6 4 3 5 6 7 8 8 8 9 10 10 8 9
6 8 3 1 3 5 2 3 4 5 6 5 3 3 3 5 7 5 5 7 6 6 5 5 5 5 5 6 5 4 4 4 5 7 7 7 7 6 7 8 10 8 6 7 7 7 7 7 8 8 9 9 10 10
4 6 8 8 7 6 13 8 6 7 6 2 2 5 5 5 5 5 5 4 3 4 5 5 5 5 5 5 5 5 5 5 5 6 8 5 3 3 4 5 7 0 8 10 11 10 9 9 9 9 9 9 9 9
4 1 3 13 10 7 10 14 11 6 6 9 11 12 10 6 4 5 4 4 4 6 6 6 7 5 5 3 3 4 4 6 9 13 13 11 10 8 9 8 8 7 7 8 9 12 14 13 13 12 13 10 9 9
11 8 11 14 15 14 8 8 11 9 8 8 8 7 7 6 5 2 3 4 6 6 5 4 4 6 7 8 8 10 9 7 8 9 10 11 11 11 11 11 12 12 11 12 12 13 9 11 12 12 13 12 11 10
3 7 9 9 9 7 6 4 5 5 5 6 5 6 6 4 7 5 6 4 3 7 8 8 8 8 9 9 9 10 10 9 10 11 11 10 12 12 12 13 12 12 12 13 13 12 12 12 10 11 10 11 14 8
4 4 4 5 5 3 2 4 4 4 4 4 4 4 4 5 5 5 6 8 8 7 6 8 8 9 9 10 9 8 3 10 10 10 12 9 9 11 12 10 10 11 12 13 12 13 15 16 14 15 13 15 15 16
1 2 2 1 2 2 2 3 1 0 1 1 2 2 3 4 5 4 4 5 6 7 8 8 9 10 12 11 11 8 8 10 11 4 1 4 4 8 11 9 11 13 15 14 13 13 14 16 15 17 17 17 15 14
Wind_Direction
269 271 270 274 276 275 269 262 285 303 316 327 332 338 341 343 348 324 20 5 334 313 331 324 339 317 307 294 304 26 249 164 249 248 256 208 261 169 242 309 225 223 220 220 243 259 234 131 142 237 16 340 354 313
268 264 269 268 267 271 263 267 271 285 303 318 325 329 333 334 334 320 306 357 329 260 350 320 301 292 291 348 326 334 3 19 14 274 181 311 231 221 267 215 169 233 333 306 296 38 84 78 346 324 313 293 293 299
267 268 259 262 262 264 257 258 265 268 285 306 314 322 328 327 329 326 325 338 280 269 208 230 137 76 274 256 249 286 116 346 80 349 331 335 270 311 233 234 285 152 322 269 255 129 46 317 320 325 319 293 285 272
264 261 262 252 251 256 260 260 267 266 265 292 304 314 324 324 298 306 324 352 277 294 284 107 183 286 335 262 222 239 313 284 296 290 292 296 284 349 324 353 283 20 169 246 250 227 310 129 26 351 327 311 291 271
266 264 255 250 252 252 251 249 255 268 248 269 293 306 319 325 256 277 288 347 346 317 333 343 307 91 78 186 213 211 251 282 274 247 241 245 301 271 192 288 245 202 264 253 338 50 342 354 343 336 325 323 306 252
257 252 248 244 251 253 255 237 233 250 242 245 284 304 314 307 263 266 216 171 283 341 279 265 75 181 354 245 218 227 242 244 261 292 269 267 208 281 270 256 305 6 306 16 54 342 330 311 309 359 341 330 292 240
249 246 243 241 244 242 248 238 228 231 222 217 263 288 304 260 265 285 360 24 349 305 274 268 178 117 342 209 150 174 193 221 267 258 242 276 229 233 260 256 229 218 275 270 310 307 301 316 317 321 318 320 310 298
240 238 235 232 240 232 229 235 236 212 203 205 236 274 297 247 268 250 155 253 253 269 257 283 141 188 342 178 156 185 163 199 184 262 211 247 218 226 262 257 283 288 280 282 296 301 305 305 297 286 300 306 289 261
235 242 238 225 224 236 241 225 207 194 192 204 225 267 191 231 227 80 104 207 225 302 308 270 278 103 284 137 143 174 249 208 104 239 230 238 225 222 236 243 244 249 280 298 304 304 301 292 288 286 287 284 274 266
236 227 225 215 221 218 236 234 191 187 175 183 190 213 203 121 99 182 192 204 196 183 223 267 46 192 294 78 138 248 207 284 238 162 96 238 252 246 231 238 247 275 307 295 288 291 300 298 299 288 283 279 273 274
223 215 203 197 214 206 223 195 174 147 152 198 165 231 78 100 226 224 225 220 168 236 203 239 288 302 109 286 34 1 350 300 256 113 264 242 252 172 101 261 343 290 290 291 299 298 293 289 288 284 276 268 277 275
212 212 205 212 208 203 192 168 156 180 173 129 144 268 150 192 203 227 204 171 237 240 155 210 133 271 105 302 269 148 279 226 256 53 252 250 81 88 63 9 336 322 316 307 305 299 296 290 284 269 269 274 272 80
197 193 204 183 177 175 175 163 172 99 141 78 250 190 157 105 196 207 184 216 221 171 172 176 159 171 160 230 238 261 242 241 352 234 244 297 83 37 356 338 332 330 330 313 303 297 294 282 268 256 249 162 133 153
181 163 164 178 176 169 161 157 145 125 68 163 156 143 225 161 230 205 234 87 71 258 152 173 138 243 92 207 282 244 304 270 261 249 250 334 48 348 330 321 317 317 317 307 296 292 289 254 230 175 147 151 147 172
92 157 167 178 158 152 150 145 140 99 80 287 254 215 207 240 85 170 100 130 154 141 189 173 166 271 150 243 208 299 223 252 252 288 352 355 337 317 313 313 305 305 300 296 282 262 235 148 158 149 146 146 126 133
87 81 78 135 133 131 130 133 107 59 156 247 222 248 189 229 159 172 171 179 159 173 155 259 158 214 222 239 224 239 260 248 356 359 319 304 298 296 291 294 306 298 284 271 244 117 119 118 122 118 139 139 147 141
360 91 122 114 119 126 135 114 170 138 235 242 219 221 279 320 284 161 187 177 118 204 167 186 200 192 230 235 232 222 291 349 319 303 301 287 282 304 315 280 286 315 308 252 126 110 117 138 148 148 134 125 122 124
111 121 129 131 134 140 141 171 150 176 235 236 251 159 196 294 210 142 182 167 194 232 234 71 321 256 238 244 206 34 337 297 302 293 312 315 346 21 16 35 21 358 338 40 79 94 96 98 94 90 109 115 122 128
120 132 139 151 157 111 163 171 214 247 225 250 237 227 206 212 229 341 171 172 207 62 157 5 252 232 257 27 328 288 276 278 285 301 300 290 291 144 146 215 4 305 344 59 60 72 80 45 48 73 115 178 122 147
105 131 157 174 264 250 177 175 224 261 245 172 252 206 216 220 190 192 210 202 202 222 226 215 228 241 265 248 246 253 277 288 295 299 243 315 359 70 49 31 34 22 100 112 94 315 118 122 69 39 18 25 253 162
141 138 181 223 259 272 295 226 225 273 345 265 324 207 214 219 218 212 222 163 198 226 238 249 261 272 311 293 271 270 275 250 251 278 326 16 28 9 29 36 13 24 357 10 13 95 260 355 16 345 256 260 258 214
96 108 52 60 305 304 275 275 338 36 274 318 267 225 233 201 184 172 119 193 246 260 278 264 267 282 272 272 286 285 294 287 266 250 211 244 296 360 351 332 326 29 335 332 337 331 345 327 341 301 276 180 237 243
101 131 213 208 204 206 268 172 190 207 207 217 172 197 205 110 103 95 140 211 257 223 212 228 250 260 262 265 263 264 246 277 312 341 19 23 284 346 323 310 321 319 322 326 342 288 321 56 226 261 284 256 278 273
188 189 192 210 202 248 185 192 222 224 222 218 172 181 193 163 160 219 42 87 160 189 193 195 195 173 197 181 64 13 23 346 295 349 334 316 343 328 336 322 330 333 337 311 299 302 302 295 332 263 255 270 268 268
275 201 220 226 218 250 258 153 149 163 101 69 67 46 6 81 40 57 74 76 63 65 66 69 90 60 39 45 46 98 47 343 357 333 45 314 311 310 312 348 342 17 351 333 335 332 317 306 294 291 290 283 285 289
2 20 358 359 356 356 8 62 63 69 89 93 80 91 122 90 72 45 25 10 22 27 21 26 3 9 52 29 10 23 17 356 333 320 6 349 323 320 319 313 312 330 48 337 331 327 319 307 296 291 286 279 229 245
21 24 20 33 325 293 28 54 62 50 54 50 54 58 53 63 55 48 42 29 20 20 17 9 14 8 14 19 17 17 5 351 355 331 312 306 308 304 297 298 306 317 325 293 288 292 300 305 303 300 294 286 280 278
357 1 16 22 55 43 56 55 52 39 35 58 43 63 41 51 59 45 43 42 35 70 58 53 41 30 28 16 6 359 4 349 359 345 343 330 293 278 315 305 303 101 282 284 287 289 282 281 285 290 292 291 287 279
24 15 28 61 60 57 38 48 61 48 52 74 78 82 92 85 91 79 50 23 329 35 30 31 24 11 24 16 10 347 341 339 341 334 334 330 329 338 342 323 310 302 295 283 230 234 264 270 273 274 278 275 273 273
58 76 74 68 67 69 53 58 73 78 76 94 108 127 120 99 76 25 351 21 13 22 6 359 1 10 360 358 356 354 348 17 8 345 336 330 326 321 322 322 322 318 315 311 301 295 263 236 244 249 249 253 256 254
80 79 81 80 78 67 63 86 102 86 82 78 73 87 82 114 111 63 38 351 335 33 14 6 12 26 356 351 344 336 334 348 342 335 347 327 323 328 330 323 316 313 311 309 305 296 292 294 294 297 288 275 280 280
75 50 83 80 79 58 19 42 41 62 72 88 93 118 138 95 77 81 27 351 14 13 18 355 357 351 352 342 339 346 17 324 334 350 346 340 342 342 326 322 335 331 321 313 307 305 307 306 297 291 287 278 269 263
280 45 12 15 49 25 50 309 329 280 241 105 83 35 38 22 64 53 77 34 3 354 354 350 347 342 343 341 341 336 330 330 338 296 121 341 305 323 316 333 336 333 333 327 328 326 329 335 331 331 325 324 331 334